Location: *
(51.4660°N, 0.3360°W)
Time: 14:41:56
(UTC+00:00)

Resurs 1-3 - Pass Details

Date: 19 September 2019
Orbit: 630 x 632 km, 98.0° (Epoch: 22 October)

Event Time Altitude Azimuth Distance (km) Brightness Sun altitude
Exits shadow 19:21:40 16° 128° (SE) 1,651 5.2 -12.2°
Maximum altitude 19:24:44 38° 67° (ENE) 965 4.2 -12.6°
Drops below altitude 10° 19:28:50 10° 359° (N) 2,028 6.5 -13.2°
Sets 19:31:08 0° 352° (N) 2,941 7.4 -13.6°
